F4DOU-5 Weather Reports


Display with metric or nautical units.
time (UTC)temp
F
wind
direction
speed
MPH
gust
MPH
rain 1hr
in
rain 24hr
in
rain mn
in
humidity
%
barometer
mb
20260507183007 64 196 2.0 7.0 0.00 0.00 0.00 73 1012.5
20260507182005 65 197 5.0 8.0 0.00 0.00 0.00 71 1012.2
20260507181005 65 208 3.0 8.0 0.00 0.00 0.00 70 1012.0
20260507180005 66 215 3.0 8.0 0.00 0.00 0.00 70 1012.0
20260507173005 67 184 8.0 14.0 0.00 0.00 0.00 68 1011.9
20260507172005 68 195 3.0 12.0 0.00 0.00 0.00 68 1011.9
20260507171005 68 196 6.0 14.0 0.00 0.00 0.00 67 1011.8
20260507170006 68 205 6.0 12.0 0.00 0.00 0.00 66 1011.8
20260507165005 69 209 3.0 8.0 0.00 0.00 0.00 61 1011.8
20260507164005 70 147 1.0 5.0 0.00 0.00 0.00 54 1011.5
20260507163005 70 145 2.0 7.0 0.00 0.00 0.00 54 1011.6
20260507162007 70 155 3.0 7.0 0.00 0.00 0.00 55 1011.7
20260507161005 69 142 1.0 6.0 0.00 0.00 0.00 57 1011.5
20260507160005 70 164 3.0 6.0 0.00 0.00 0.00 56 1011.5
20260507155005 70 161 2.0 6.0 0.00 0.00 0.00 56 1011.5
20260507154009 70 335 1.0 2.0 0.00 0.00 0.00 53 1011.5
20260507153005 71 335 1.0 3.0 0.00 0.00 0.00 52 1011.6
20260507152005 71 305 1.0 2.0 0.00 0.00 0.00 53 1011.6
20260507151005 71 340 1.0 2.0 0.00 0.00 0.00 55 1011.7
20260507150006 70 355 1.0 2.0 0.00 0.00 0.00 53 1011.8
20260507145005 70 65 0.0 2.0 0.00 0.00 0.00 54 1011.9
20260507144005 70 65 1.0 3.0 0.00 0.00 0.00 53 1012.0
20260507143005 70 63 0.0 2.0 0.00 0.00 0.00 52 1012.0
20260507142006 70 59 1.0 5.0 0.00 0.00 0.00 55 1012.0
20260507141007 70 158 2.0 5.0 0.00 0.00 0.00 54 1012.2
20260507140006 70 137 2.0 3.0 0.00 0.00 0.00 54 1012.2
20260507135005 70 124 1.0 6.0 0.00 0.00 0.00 54 1012.3
20260507134007 71 88 3.0 10.0 0.00 0.00 0.00 53 1012.2
20260507133005 71 169 3.0 8.0 0.00 0.00 0.00 52 1012.3
20260507132005 71 117 5.0 7.0 0.00 0.00 0.00 53 1012.4
20260507131005 71 136 2.0 5.0 0.00 0.00 0.00 51 1012.5
20260507130005 71 157 3.0 6.0 0.00 0.00 0.00 53 1012.5
20260507125005 71 234 2.0 6.0 0.00 0.00 0.00 53 1012.6
20260507124005 70 224 2.0 5.0 0.00 0.00 0.00 56 1012.6
20260507123005 69 38 0.0 7.0 0.00 0.00 0.00 56 1012.7
20260507115005 70 169 2.0 6.0 0.00 0.01 0.00 55 1012.9
20260507113006 69 69 3.0 10.0 0.00 0.01 0.00 58 1013.2
20260507112005 69 138 4.0 7.0 0.00 0.01 0.00 57 1013.2
20260507111005 69 63 3.0 9.0 0.00 0.01 0.00 58 1013.3
20260507110005 69 148 3.0 9.0 0.00 0.01 0.00 58 1013.4
20260507105007 69 113 2.0 6.0 0.00 0.01 0.00 59 1013.6
20260507104005 68 266 2.0 8.0 0.00 0.01 0.00 60 1013.7
20260507103005 67 24 3.0 8.0 0.00 0.01 0.00 62 1013.9
20260507101007 67 47 2.0 7.0 0.00 0.01 0.00 63 1013.9
20260507100005 66 52 3.0 8.0 0.00 0.01 0.00 64 1013.8
20260507095005 65 313 2.0 8.0 0.00 0.01 0.00 67 1013.9
20260507094005 65 73 2.0 7.0 0.00 0.01 0.00 68 1013.9
20260507093008 65 65 5.0 8.0 0.00 0.01 0.00 68 1014.0
20260507092005 64 148 2.0 5.0 0.00 0.01 0.00 70 1014.0
20260507091005 63 347 3.0 10.0 0.00 0.01 0.00 70 1014.0
20260507090005 63 79 3.0 9.0 0.00 0.01 0.00 71 1013.9
20260507085005 63 59 5.0 9.0 0.00 0.01 0.00 71 1013.9
20260507084004 62 29 3.0 7.0 0.00 0.01 0.00 72 1013.9
20260507083005 61 359 5.0 10.0 0.00 0.01 0.00 74 1013.8
20260507082005 61 30 3.0 10.0 0.00 0.01 0.00 75 1013.8
20260507081005 60 38 6.0 12.0 0.00 0.01 0.00 76 1013.8
20260507080005 60 354 5.0 12.0 0.00 0.01 0.00 77 1013.8
20260507074004 59 13 6.0 10.0 0.00 0.01 0.00 77 1013.8
20260507073005 59 356 6.0 10.0 0.00 0.01 0.00 78 1013.8
20260507070009 56 23 6.0 9.0 0.00 0.01 0.00 83 1013.9
20260507065005 56 35 4.0 9.0 0.00 0.01 0.00 84 1013.8
20260507063005 54 24 4.0 8.0 0.00 0.01 0.00 87 1013.9
20260507062004 54 23 3.0 7.0 0.00 0.01 0.00 91 1013.8
20260507061004 52 134 0.0 1.0 0.00 0.01 0.00 92 1013.7
20260507055005 50 155 1.0 3.0 0.00 0.01 0.00 93 1013.7
20260507054004 50 131 2.0 3.0 0.00 0.01 0.00 93 1013.6
20260507052006 48 329 1.0 3.0 0.00 0.01 0.00 94 1013.4
20260507051004 47 151 0.0 2.0 0.00 0.01 0.00 94 1013.4
20260507050005 47 151 1.0 2.0 0.00 0.01 0.00 93 1013.2
20260507045004 47 151 1.0 3.0 0.00 0.01 0.00 92 1013.0
20260507044007 47 311 0.0 0.0 0.00 0.01 0.00 93 1012.9
20260507043004 47 314 0.0 0.0 0.00 0.01 0.00 92 1012.9
20260507042004 47 322 0.0 0.0 0.00 0.01 0.00 92 1012.8
20260507041005 47 294 0.0 2.0 0.00 0.01 0.00 92 1012.9
20260507035006 48 307 1.0 3.0 0.00 0.01 0.00 92 1012.8
20260507034006 48 306 1.0 3.0 0.00 0.01 0.00 92 1012.8
20260507033006 48 340 1.0 2.0 0.00 0.01 0.00 92 1012.8
20260507032006 48 355 0.0 2.0 0.00 0.01 0.00 91 1012.8
20260507031006 48 43 0.0 0.0 0.00 0.01 0.00 91 1012.8
20260507030006 48 43 0.0 0.0 0.00 0.01 0.00 91 1012.8
20260507024006 49 43 0.0 1.0 0.00 0.01 0.00 90 1012.8
20260507023006 49 43 1.0 2.0 0.00 0.01 0.00 90 1012.6
20260507022006 49 284 1.0 3.0 0.00 0.01 0.00 90 1012.6
20260507021006 49 318 2.0 3.0 0.00 0.01 0.00 90 1012.7
20260507020006 49 348 1.0 2.0 0.00 0.01 0.00 90 1012.7
20260507015004 50 318 1.0 3.0 0.00 0.01 0.00 90 1012.7
20260507013006 50 294 1.0 2.0 0.00 0.01 0.00 90 1012.7
20260507012006 50 235 0.0 1.0 0.00 0.01 0.00 90 1012.8
20260507010006 51 231 0.0 2.0 0.00 0.01 0.00 89 1012.8
20260507005006 51 275 0.0 1.0 0.00 0.01 0.00 89 1012.7
20260507004006 51 296 0.0 1.0 0.00 0.02 0.00 88 1012.7
20260507003007 51 276 0.0 3.0 0.00 0.02 0.00 88 1012.8
20260507002006 51 76 0.0 5.0 0.00 0.02 0.00 87 1012.8
20260507001006 52 140 0.0 1.0 0.00 0.02 0.00 87 1012.9
20260507000006 52 111 0.0 1.0 0.00 0.02 0.00 86 1012.8
20260506235004 52 54 0.0 3.0 0.00 0.02 0.00 85 1012.7
20260506234006 52 46 0.0 3.0 0.00 0.02 0.00 84 1012.6
20260506233006 53 293 0.0 0.0 0.00 0.02 0.00 83 1012.6
20260506232006 53 293 0.0 2.0 0.00 0.03 0.00 82 1012.5
20260506231005 54 324 0.0 2.0 0.00 0.05 0.00 81 1012.7
20260506230006 54 234 0.0 0.0 0.00 0.06 0.00 81 1012.7
20260506225006 55 237 0.0 0.0 0.00 0.06 0.00 79 1012.7
20260506224006 56 237 0.0 0.0 0.00 0.10 0.00 77 1012.7
20260506223005 56 237 0.0 3.0 0.00 0.13 0.00 76 1012.7
20260506222006 57 203 1.0 3.0 0.00 0.17 0.00 75 1012.7
20260506221006 57 230 0.0 1.0 0.00 0.19 0.00 75 1012.8
20260506214004 58 249 2.0 9.0 0.00 0.20 0.19 73 1012.6
20260506213004 58 245 1.0 2.0 0.00 0.21 0.19 73 1012.5
20260506212004 59 141 0.0 3.0 0.00 0.21 0.19 71 1012.5
20260506211004 59 126 2.0 6.0 0.00 0.21 0.19 70 1012.3
20260506210006 59 166 1.0 5.0 0.00 0.21 0.19 69 1012.3
20260506205006 59 180 3.0 5.0 0.00 0.21 0.19 69 1011.9
20260506204006 60 246 0.0 3.0 0.00 0.21 0.19 68 1011.9
20260506203006 60 223 1.0 5.0 0.00 0.21 0.19 68 1011.8
20260506202007 60 233 2.0 3.0 0.00 0.21 0.19 68 1011.6
20260506200006 61 225 2.0 5.0 0.00 0.21 0.19 69 1011.4
20260506195006 61 232 1.0 3.0 0.00 0.21 0.19 69 1011.4
20260506194008 61 200 1.0 3.0 0.00 0.21 0.19 70 1011.2
20260506193006 61 207 0.0 3.0 0.00 0.21 0.19 72 1011.1
20260506192006 61 217 1.0 3.0 0.00 0.21 0.19 73 1010.9
20260506191006 62 210 2.0 7.0 0.00 0.21 0.19 73 1010.6
20260506184006 63 211 3.0 9.0 0.00 0.21 0.19 70 1010.1